This is the latest recevied weather packets stored in our database for station/object KI6PPU. If no packets are shown the sender has not sent any weather packets the latest 10 day(s).
| Time | Temp. | Humidity | Pressure | Rain* | Wind** | Luminosity | Snow |
|---|---|---|---|---|---|---|---|
| 1778096321 | 18.33° C | 79% | 1023 hPa | 0 mm | - | 290 W/m² | - |
| 1778096017 | 17.78° C | 76% | 1022.9 hPa | 0 mm | - | 283 W/m² | - |
| 1778095714 | 17.78° C | 78% | 1023 hPa | 0 mm | - | 263 W/m² | - |
| 1778095410 | 17.78° C | 77% | 1023.1 hPa | 0 mm | - | 254 W/m² | - |
| 1778095107 | 17.78° C | 78% | 1023.2 hPa | 0 mm | - | 241 W/m² | - |
| 1778094804 | 17.78° C | 79% | 1023.3 hPa | 0 mm | - | 234 W/m² | - |
| 1778094501 | 17.78° C | 78% | 1023 hPa | 0 mm | - | 228 W/m² | - |
| 1778094197 | 17.78° C | 79% | 1023.1 hPa | 0 mm | - | 223 W/m² | - |
| 1778093894 | 17.78° C | 79% | 1023.2 hPa | 0 mm | - | 214 W/m² | - |
| 1778093591 | 17.78° C | 80% | 1023.1 hPa | 0 mm | - | 212 W/m² | - |
| 1778093288 | 17.78° C | 79% | 1023.3 hPa | 0 mm | - | 196 W/m² | - |
| 1778092986 | 17.78° C | 79% | 1023.2 hPa | 0 mm | - | 198 W/m² | - |
| 1778092682 | 17.78° C | 80% | 1023.2 hPa | 0 mm | - | 213 W/m² | - |
| 1778092378 | 17.78° C | 78% | 1023.3 hPa | 0 mm | - | 214 W/m² | - |
| 1778092075 | 17.78° C | 79% | 1023.2 hPa | 0 mm | - | 218 W/m² | - |
| 1778091772 | 17.78° C | 78% | 1023.2 hPa | 0 mm | - | 221 W/m² | - |
| 1778091470 | 17.78° C | 80% | 1023.3 hPa | 0 mm | - | 225 W/m² | - |
| 1778091167 | 17.78° C | 78% | 1023 hPa | 0 mm | - | 235 W/m² | - |
| 1778090864 | 17.78° C | 78% | 1023.3 hPa | 0 mm | - | 234 W/m² | - |
| 1778090560 | 17.78° C | 77% | 1023 hPa | 0 mm | - | 237 W/m² | - |
| 1778090257 | 17.78° C | 74% | 1023.1 hPa | 0 mm | - | 250 W/m² | - |
| 1778089953 | 18.33° C | 77% | 1023.1 hPa | 0 mm | - | 284 W/m² | - |
| 1778089651 | 18.33° C | 75% | 1023.1 hPa | 0 mm | - | 324 W/m² | - |
| 1778089347 | 17.78° C | 78% | 1023.2 hPa | 0 mm | - | 365 W/m² | - |
| 1778089046 | 17.78° C | 81% | 1023 hPa | 0 mm | - | 269 W/m² | - |
* Rain latest hour (hover to see other rain measurements)
** Current wind speed in m/s (hover to see current wind gust speed)